User: anonymous   Login
Location: Unspecified
(0.0000°N, 0.0000°E)
Time: 07:49:04
(UTC+00:00)
Language:

STARLINK-32627 - Orbit

View from above orbital plane
View from above orbital plane
View from above satellite
View from above satellite

Ground track
Ground track

The orbit is defined by the following mean orbital elements,

1 62315U          26145.52346056 +.00000000 +00000-0 +34698-3 0 00002
2 62315  53.1592 197.2632 0001067  81.8012 278.3110 15.30208942    04
Epoch (UTC): 25 May 2026 12:33:46
Eccentricity: 0.0001067
inclination: 53.1592°
perigee height: 474 km
apogee height: 476 km
right ascension of ascending node: 197.2632°
argument of perigee: 81.8012°
revolutions per day: 15.30208942
mean anomaly at epoch: 278.3110°

The dashed part of the orbit path shows where the satellite is in the earth's shadow,  

DLR